This is the latest recevied weather packets stored in our database for station/object IZ1MEU-13. If no packets are shown the sender has not sent any weather packets the latest 10 day(s).
| Time | Temp. | Humidity | Pressure | Rain* | Wind** | Luminosity | Snow |
|---|---|---|---|---|---|---|---|
| 1777556714 | 15° C | 47% | 1026.2 hPa | - | - | - | - |
| 1777555510 | 15° C | 46% | 1026.4 hPa | - | - | - | - |
| 1777554307 | 15° C | 49% | 1026.5 hPa | - | - | - | - |
| 1777553104 | 13.89° C | 49% | 1026.7 hPa | - | - | - | - |
| 1777551900 | 13.33° C | 51% | 1026.7 hPa | - | - | - | - |
| 1777550697 | 12.78° C | 53% | 1026.8 hPa | - | - | - | - |
| 1777549493 | 12.78° C | 53% | 1026.9 hPa | - | - | - | - |
| 1777548290 | 12.78° C | 53% | 1026.9 hPa | - | - | - | - |
| 1777547086 | 12.22° C | 54% | 1026.8 hPa | - | - | - | - |
| 1777545882 | 12.22° C | 54% | 1026.7 hPa | - | - | - | - |
| 1777544678 | 11.67° C | 54% | 1026.6 hPa | - | - | - | - |
| 1777543474 | 11.11° C | 56% | 1026.7 hPa | - | - | - | - |
| 1777542270 | 11.11° C | 57% | 1026.6 hPa | - | - | - | - |
| 1777541066 | 10.56° C | 59% | 1026.6 hPa | - | - | - | - |
| 1777539862 | 10.56° C | 59% | 1026.4 hPa | - | - | - | - |
| 1777538658 | 10° C | 60% | 1026.2 hPa | - | - | - | - |
| 1777537454 | 10° C | 61% | 1026 hPa | - | - | - | - |
| 1777536250 | 9.44° C | 63% | 1025.7 hPa | - | - | - | - |
| 1777535046 | 10° C | 64% | 1025.4 hPa | - | - | - | - |
| 1777533842 | 10° C | 65% | 1025.3 hPa | - | - | - | - |
| 1777532638 | 10° C | 64% | 1025 hPa | - | - | - | - |
| 1777531434 | 10° C | 64% | 1024.9 hPa | - | - | - | - |
| 1777530230 | 10° C | 63% | 1024.7 hPa | - | - | - | - |
| 1777529026 | 10.56° C | 62% | 1024.4 hPa | - | - | - | - |
| 1777527823 | 10.56° C | 63% | 1024.1 hPa | - | - | - | - |
* Rain since midnight (hover to see other rain measurements)
** Current wind speed in m/s (hover to see current wind gust speed)